P/L 153 DEB

Satellite information

Favourite Embed

Satellite Type and Status

DEBRISIN ORBIT

Key statistics

Satellite P/L 153 DEB at a glance.

Uptime

21339

Days in orbit

Revolutions

≈ 14.2

Per day

Orbit

LEO

Low Earth Orbit

Inclination

70.0

Latest

Satellite identification and parameters

Extended collection of information and parameters for P/L 153 DEB.

Object identification

Identified? True

Debris? True

Object name: P/L 153 DEB

International designator: 1967-053K

Object number (NORAD): 19245

Object ID (CCSDS): 19245

Country: UNITED STATES OF AMERICA (US)

Current information (Y/N): Y

RCS size: SMALL

Orbital parameters

Period: 101.225 minutes

Inclination: 69.9547 deg

SMA: 7194.804 km

Apoapsis: 817.836 km

Periapsis: 815.502 km

RAAN: 129.4131 deg

Eccentricy: 0.0001622

Argument of periapsis: 44.8142 deg

Mean anomaly: 46.7262 deg

Mean motion: 14.22572191 rev/day

Mean motion (dot): 0.00000987 rev/day2

B* drag term: 0.00046721 1/REarth

Two-line elements (TLE)

Creation date: Oct. 31, 2025, 11:06 p.m.

Reference frame: TEME

Reference center: EARTH

Epoch: Oct. 31, 2025, 6:29 p.m. UTC

TLE line 0: 0 P/L 153 DEB

TLE line 1: 1 19245U 67053K 25304.77028078 .00000987 00000-0 46721-3 0 9992

TLE line 2: 2 19245 69.9547 129.4131 0001622 44.8142 46.7262 14.22572191997813

Live tracking on map

Real-time ground track for satellite P/L 153 DEB.

In-orbit conjunctions

A list of the most updated potential collisions computed for object P/L 153 DEB.

Target Orbit TCA Probability of collision Miss distance Type
CZ-6A DEB SSO 2025-04-20 11:16:49 0.0002864102 82.0 (m) DEBRIS
CZ-6A DEB LEO 2025-03-01 20:54:05 0.0003336389 433.0 (m) DEBRIS

Associated space launch

Poppy was the follow-on ELINT system, which succeeded the Grab ELINT satellite system.

P/L 153 DEB was lifted into orbit during the mission ‘Thor SLV-2 Agena D | Poppy 7A,B,C,D’, on board a Thor SLV-2 Agena D space rocket.

The launch took place on May 31, 1967, 9:30 a.m. from Space Launch Complex 2W.

For more information about the launch, click the button.

Launch to space Thor SLV-2 Agena D | Poppy 7A,B,C,D
Thor SLV-2 Agena D | Poppy 7A,B,C,D

Agency: N/A

Status: Launch Successful

Launch date: May 31, 1967, 9:30 a.m. UTC

Rocket: Thor SLV-2 Agena D

Launch pad: Space Launch Complex 2W

Location: Vandenberg SFB, CA, USA

...

Latest news about this satellite

There are no fresh news available about this satellite. Check back as we update our databases every day.


Newsletter sign-up

Weekly statistics, charts and insights to help you stay on top of the space industry.